"Period start","avg(HW err(1)/warn(2) (#))","avg(Visibility (m))","avg(Weather code (#))","avg(Precip intensity (mm/h))","min(HW err(1)/warn(2) (#))","max(HW err(1)/warn(2) (#))","std(HW err(1)/warn(2) (#))","med(HW err(1)/warn(2) (#))","min(Visibility (m))","max(Visibility (m))","std(Visibility (m))","med(Visibility (m))","min(Weather code (#))","max(Weather code (#))","std(Weather code (#))","med(Weather code (#))","min(Precip intensity (mm/h))","max(Precip intensity (mm/h))","std(Precip intensity (mm/h))","med(Precip intensity (mm/h))"
2013-07-26 00:00:00,2,8777,15,0.03,2,2,0,2,3018,13111,3079,8758,10,61,15,10,0.00,0.30,0.09,0.00
2013-07-26 00:10:00,2,6012,62,20.37,2,2,0,2,3707,9926,1841,5516,61,63,1,62,8.00,42.35,11.02,18.75
2013-07-26 00:20:00,2,10207,61,10.23,2,2,0,2,4475,16233,4742,9908,61,62,0,61,0.75,24.65,9.40,5.42
2013-07-26 00:30:00,2,19916,60,0.92,2,2,0,2,16397,23150,2291,20168,51,61,3,61,0.10,2.00,0.65,0.95
2013-07-26 00:40:00,2,32690,48,0.21,2,2,0,2,23074,40719,5839,30740,0,61,16,51,0.00,1.45,0.42,0.05
2013-07-26 00:50:00,2,27721,49,0.79,2,2,0,2,16209,38083,5722,29340,0,61,24,61,0.00,2.20,0.88,0.30
2013-07-26 01:00:00,2,37945,0,0.00,2,2,0,2,27504,44814,4629,38045,0,0,0,0,0.00,0.00,0.00,0.00
2013-07-26 01:10:00,2,42765,0,0.00,2,2,0,2,38186,49207,3357,42849,0,0,0,0,0.00,0.00,0.00,0.00
2013-07-26 01:20:00,2,44170,0,0.00,2,2,0,2,38051,50000,4460,44391,0,0,0,0,0.00,0.00,0.00,0.00
2013-07-26 01:30:00,2,43740,0,0.00,2,2,0,2,30356,50000,5373,45659,0,0,0,0,0.00,0.00,0.00,0.00
2013-07-26 01:40:00,2,44742,0,0.00,2,2,0,2,40311,48064,2677,45631,0,0,0,0,0.00,0.00,0.00,0.00
2013-07-26 01:50:00,2,46579,0,0.00,2,2,0,2,37432,50000,4272,49302,0,0,0,0,0.00,0.00,0.00,0.00
2013-07-26 02:00:00,2,46116,0,0.00,2,2,0,2,41166,50000,3331,45710,0,0,0,0,0.00,0.00,0.00,0.00
2013-07-26 02:10:00,2,47026,0,0.00,2,2,0,2,38631,50000,4262,50000,0,0,0,0,0.00,0.00,0.00,0.00
2013-07-26 02:20:00,2,43356,0,0.00,2,2,0,2,36776,50000,4623,42236,0,0,0,0,0.00,0.00,0.00,0.00
2013-07-26 02:30:00,2,46261,0,0.00,2,2,0,2,38440,50000,4217,48214,0,0,0,0,0.00,0.00,0.00,0.00
2013-07-26 02:40:00,2,23229,0,0.00,2,2,0,2,8428,34161,8028,24967,0,0,0,0,0.00,0.00,0.00,0.00
2013-07-26 02:50:00,2,7480,4,0.00,2,2,0,2,6214,10272,1332,6880,0,10,5,0,0.00,0.00,0.00,0.00
2013-07-26 03:00:00,2,8302,10,0.00,2,2,0,2,6213,11992,1527,8024,10,10,0,10,0.00,0.00,0.00,0.00
2013-07-26 03:10:00,2,20899,7,0.00,2,2,0,2,12270,33653,5602,19462,0,10,5,10,0.00,0.00,0.00,0.00
2013-07-26 03:20:00,2,48098,0,0.00,2,2,0,2,44413,50000,2396,49815,0,0,0,0,0.00,0.00,0.00,0.00
2013-07-26 03:30:00,2,49971,0,0.00,2,2,0,2,49708,50000,88,50000,0,0,0,0,0.00,0.00,0.00,0.00
2013-07-26 03:40:00,2,47337,0,0.00,2,2,0,2,42359,50000,2823,48291,0,0,0,0,0.00,0.00,0.00,0.00
2013-07-26 03:50:00,2,48478,0,0.00,2,2,0,2,39915,50000,3043,49859,0,0,0,0,0.00,0.00,0.00,0.00
2013-07-26 04:00:00,2,45468,0,0.00,2,2,0,2,33025,50000,6044,49195,0,0,0,0,0.00,0.00,0.00,0.00
2013-07-26 04:10:00,2,49308,0,0.00,2,2,0,2,45868,50000,1416,50000,0,0,0,0,0.00,0.00,0.00,0.00
2013-07-26 04:20:00,2,47899,0,0.00,2,2,0,2,40867,50000,3255,49984,0,0,0,0,0.00,0.00,0.00,0.00
2013-07-26 04:30:00,2,49448,0,0.00,2,2,0,2,47091,50000,939,50000,0,0,0,0,0.00,0.00,0.00,0.00
2013-07-26 04:40:00,2,49223,0,0.00,2,2,0,2,45437,50000,1424,50000,0,0,0,0,0.00,0.00,0.00,0.00
2013-07-26 04:50:00,2,49565,0,0.00,2,2,0,2,45651,50000,1305,50000,0,0,0,0,0.00,0.00,0.00,0.00
2013-07-26 05:00:00,2,42845,0,0.00,2,2,0,2,32279,50000,4984,42902,0,0,0,0,0.00,0.00,0.00,0.00
2013-07-26 05:10:00,2,39086,0,0.00,2,2,0,2,15019,50000,9501,42218,0,0,0,0,0.00,0.00,0.00,0.00
2013-07-26 05:20:00,2,8411,2,0.00,2,2,0,2,3707,16112,3810,7402,0,4,2,0,0.00,0.00,0.00,0.00
2013-07-26 05:30:00,2,2606,4,0.00,2,2,0,2,1287,4876,1240,2193,4,4,0,4,0.00,0.00,0.00,0.00
2013-07-26 05:40:00,2,1077,9,0.00,2,2,0,2,669,1604,333,1020,4,10,2,10,0.00,0.00,0.00,0.00
2013-07-26 05:50:00,2,705,34,0.00,2,2,0,2,543,863,100,690,30,34,1,34,0.00,0.00,0.00,0.00
2013-07-26 06:00:00,2,683,34,0.00,2,2,0,2,523,831,99,680,34,34,0,34,0.00,0.00,0.00,0.00
2013-07-26 06:10:00,2,784,34,0.00,2,2,0,2,620,974,119,772,34,34,0,34,0.00,0.00,0.00,0.00
2013-07-26 06:20:00,2,754,34,0.00,2,2,0,2,641,993,97,734,34,34,0,34,0.00,0.00,0.00,0.00
2013-07-26 06:30:00,2,842,34,0.00,2,2,0,2,671,1104,138,784,34,34,0,34,0.00,0.00,0.00,0.00
2013-07-26 06:40:00,2,1056,33,0.00,2,2,0,2,836,1379,147,1061,30,34,2,34,0.00,0.00,0.00,0.00
2013-07-26 06:50:00,2,996,25,0.00,2,2,0,2,751,1374,196,972,20,30,5,25,0.00,0.00,0.00,0.00
2013-07-26 07:00:00,2,1790,24,0.00,2,2,0,2,1256,2374,360,1715,20,30,5,20,0.00,0.00,0.00,0.00
2013-07-26 07:10:00,2,1569,20,0.00,2,2,0,2,1398,1738,94,1583,20,20,0,20,0.00,0.00,0.00,0.00
2013-07-26 07:20:00,2,1584,20,0.00,2,2,0,2,1449,1727,89,1577,20,20,0,20,0.00,0.00,0.00,0.00
2013-07-26 07:30:00,2,1942,20,0.00,2,2,0,2,1465,2649,324,1884,20,20,0,20,0.00,0.00,0.00,0.00
2013-07-26 07:40:00,2,1237,20,0.00,2,2,0,2,1023,1491,119,1228,20,20,0,20,0.00,0.00,0.00,0.00
2013-07-26 07:50:00,2,1078,20,0.00,2,2,0,2,848,1373,162,1063,20,20,0,20,0.00,0.00,0.00,0.00
2013-07-26 08:00:00,2,986,28,0.00,2,2,0,2,839,1276,118,984,20,30,4,30,0.00,0.00,0.00,0.00
2013-07-26 08:10:00,2,1000,25,0.00,2,2,0,2,775,1355,165,947,20,30,5,25,0.00,0.00,0.00,0.00
2013-07-26 08:20:00,2,1743,25,0.00,2,2,0,2,1014,2081,295,1801,20,30,5,25,0.00,0.00,0.00,0.00
2013-07-26 08:30:00,2,1546,20,0.00,2,2,0,2,1229,1912,190,1583,20,20,0,20,0.00,0.00,0.00,0.00
2013-07-26 08:40:00,2,1455,20,0.00,2,2,0,2,1303,1639,93,1421,20,20,0,20,0.00,0.00,0.00,0.00
2013-07-26 08:50:00,2,1207,20,0.00,2,2,0,2,915,1460,179,1178,20,20,0,20,0.00,0.00,0.00,0.00
2013-07-26 09:00:00,2,1225,20,0.00,2,2,0,2,1008,1489,165,1186,20,20,0,20,0.00,0.00,0.00,0.00
2013-07-26 09:10:00,2,1935,20,0.00,2,2,0,2,1394,2470,321,1930,20,20,0,20,0.00,0.00,0.00,0.00
2013-07-26 09:20:00,2,10500,15,0.00,2,2,0,2,3247,24655,7988,7016,10,20,5,15,0.00,0.00,0.00,0.00
2013-07-26 09:30:00,2,40957,5,0.00,2,2,0,2,25399,48901,7075,43878,0,10,5,5,0.00,0.00,0.00,0.00
2013-07-26 09:40:00,2,27672,0,0.00,2,2,0,2,22745,41874,5265,26108,0,0,0,0,0.00,0.00,0.00,0.00
2013-07-26 09:50:00,2,39282,0,0.00,2,2,0,2,31584,49046,5764,36686,0,0,0,0,0.00,0.00,0.00,0.00
2013-07-26 10:00:00,2,46452,0,0.00,2,2,0,2,34917,50000,5114,50000,0,0,0,0,0.00,0.00,0.00,0.00
2013-07-26 10:10:00,2,42376,0,0.00,2,2,0,2,27377,50000,8500,46321,0,0,0,0,0.00,0.00,0.00,0.00
2013-07-26 10:20:00,2,50000,0,0.00,2,2,0,2,50000,50000,0,50000,0,0,0,0,0.00,0.00,0.00,0.00
2013-07-26 10:30:00,2,49778,0,0.00,2,2,0,2,47779,50000,666,50000,0,0,0,0,0.00,0.00,0.00,0.00
2013-07-26 10:40:00,2,50000,0,0.00,2,2,0,2,50000,50000,0,50000,0,0,0,0,0.00,0.00,0.00,0.00
2013-07-26 10:50:00,2,50000,0,0.00,2,2,0,2,50000,50000,0,50000,0,0,0,0,0.00,0.00,0.00,0.00
2013-07-26 11:00:00,2,50000,0,0.00,2,2,0,2,50000,50000,0,50000,0,0,0,0,0.00,0.00,0.00,0.00
2013-07-26 11:10:00,2,50000,0,0.00,2,2,0,2,50000,50000,0,50000,0,0,0,0,0.00,0.00,0.00,0.00
2013-07-26 11:20:00,2,50000,0,0.00,2,2,0,2,50000,50000,0,50000,0,0,0,0,0.00,0.00,0.00,0.00
2013-07-26 11:30:00,2,50000,0,0.00,2,2,0,2,50000,50000,0,50000,0,0,0,0,0.00,0.00,0.00,0.00
2013-07-26 11:40:00,2,50000,0,0.00,2,2,0,2,50000,50000,0,50000,0,0,0,0,0.00,0.00,0.00,0.00
2013-07-26 11:50:00,2,50000,0,0.00,2,2,0,2,50000,50000,0,50000,0,0,0,0,0.00,0.00,0.00,0.00
2013-07-26 12:00:00,2,50000,0,0.00,2,2,0,2,50000,50000,0,50000,0,0,0,0,0.00,0.00,0.00,0.00
2013-07-26 12:10:00,2,50000,0,0.00,2,2,0,2,50000,50000,0,50000,0,0,0,0,0.00,0.00,0.00,0.00
2013-07-26 12:20:00,2,50000,0,0.00,2,2,0,2,50000,50000,0,50000,0,0,0,0,0.00,0.00,0.00,0.00
2013-07-26 12:30:00,2,50000,0,0.00,2,2,0,2,50000,50000,0,50000,0,0,0,0,0.00,0.00,0.00,0.00
2013-07-26 12:40:00,2,50000,0,0.00,2,2,0,2,50000,50000,0,50000,0,0,0,0,0.00,0.00,0.00,0.00
2013-07-26 12:50:00,2,49984,0,0.00,2,2,0,2,49839,50000,48,50000,0,0,0,0,0.00,0.00,0.00,0.00
2013-07-26 13:00:00,2,49882,0,0.00,2,2,0,2,48820,50000,354,50000,0,0,0,0,0.00,0.00,0.00,0.00
2013-07-26 13:10:00,2,29996,0,0.00,2,2,0,2,13527,50000,13539,23092,0,0,0,0,0.00,0.00,0.00,0.00
2013-07-26 13:20:00,2,50000,0,0.00,2,2,0,2,50000,50000,0,50000,0,0,0,0,0.00,0.00,0.00,0.00
2013-07-26 13:30:00,2,46803,0,0.00,2,2,0,2,39271,50000,4384,50000,0,0,0,0,0.00,0.00,0.00,0.00
2013-07-26 13:40:00,2,32691,0,0.00,2,2,0,2,9343,46042,12469,38018,0,0,0,0,0.00,0.00,0.00,0.00
2013-07-26 13:50:00,2,6036,5,0.00,2,2,0,2,4648,8776,1250,5857,0,10,4,4,0.00,0.00,0.00,0.00
2013-07-26 14:00:00,2,7440,9,0.00,2,2,0,2,3301,15662,3781,5830,0,10,3,10,0.00,0.00,0.00,0.00
2013-07-26 14:10:00,2,2234,10,0.00,2,2,0,2,1922,2845,239,2200,10,10,0,10,0.00,0.00,0.00,0.00
2013-07-26 14:20:00,2,2187,10,0.00,2,2,0,2,1555,2703,310,2207,10,10,0,10,0.00,0.00,0.00,0.00
2013-07-26 14:30:00,2,2523,10,0.00,2,2,0,2,1852,2971,346,2650,10,10,0,10,0.00,0.00,0.00,0.00
2013-07-26 14:40:00,2,1716,10,0.00,2,2,0,2,1510,1974,152,1752,10,10,0,10,0.00,0.00,0.00,0.00
2013-07-26 14:50:00,2,1770,10,0.00,2,2,0,2,1171,2886,544,1535,10,10,0,10,0.00,0.00,0.00,0.00
2013-07-26 15:00:00,2,1689,10,0.00,2,2,0,2,1463,1962,180,1652,10,10,0,10,0.00,0.00,0.00,0.00
2013-07-26 15:10:00,2,1610,10,0.00,2,2,0,2,1284,2000,221,1602,10,10,0,10,0.00,0.00,0.00,0.00
2013-07-26 15:20:00,2,1905,10,0.00,2,2,0,2,1371,2309,295,1966,10,10,0,10,0.00,0.00,0.00,0.00
2013-07-26 15:30:00,2,1949,10,0.00,2,2,0,2,1501,2586,327,1916,10,10,0,10,0.00,0.00,0.00,0.00
2013-07-26 15:40:00,2,1982,10,0.00,2,2,0,2,1548,2393,308,2038,10,10,0,10,0.00,0.00,0.00,0.00
2013-07-26 15:50:00,2,2185,10,0.00,2,2,0,2,1579,2598,281,2252,10,10,0,10,0.00,0.00,0.00,0.00
2013-07-26 16:00:00,2,2212,10,0.00,2,2,0,2,1615,2840,455,2166,10,10,0,10,0.00,0.00,0.00,0.00
2013-07-26 16:10:00,2,7174,10,0.00,2,2,0,2,1029,28855,9073,2234,10,10,0,10,0.00,0.00,0.00,0.00
2013-07-26 16:20:00,2,16626,10,0.00,2,2,0,2,2505,42216,12554,11154,10,10,0,10,0.00,0.00,0.00,0.00
2013-07-26 16:30:00,2,49348,5,0.00,2,2,0,2,44357,50000,1684,50000,0,10,5,5,0.00,0.00,0.00,0.00
2013-07-26 16:40:00,2,32855,6,0.00,2,2,0,2,1325,50000,20655,45858,0,10,5,10,0.00,0.00,0.00,0.00
2013-07-26 16:50:00,2,41156,6,0.00,2,2,0,2,10602,50000,12333,47335,0,10,5,10,0.00,0.00,0.00,0.00
2013-07-26 17:00:00,2,5561,5,0.00,2,2,0,2,705,19670,5765,3210,0,10,5,5,0.00,0.00,0.00,0.00
2013-07-26 17:10:00,2,11768,10,0.00,2,2,0,2,726,42696,14492,3377,10,10,0,10,0.00,0.00,0.00,0.00
2013-07-26 17:20:00,2,33564,7,0.00,2,2,0,2,3047,50000,20479,49969,0,10,5,10,0.00,0.00,0.00,0.00
2013-07-26 17:30:00,2,48157,0,0.00,2,2,0,2,34650,50000,4595,50000,0,0,0,0,0.00,0.00,0.00,0.00
2013-07-26 17:40:00,2,34612,1,0.00,2,2,0,2,1337,50000,20481,50000,0,10,3,0,0.00,0.00,0.00,0.00
2013-07-26 17:50:00,2,24253,10,0.00,2,2,0,2,989,50000,20233,18897,10,10,0,10,0.00,0.00,0.00,0.00
2013-07-26 18:00:00,2,2191,10,0.00,2,2,0,2,725,4014,1261,1681,10,10,0,10,0.00,0.00,0.00,0.00
2013-07-26 18:10:00,2,8206,9,0.00,2,2,0,2,846,21608,7025,5964,4,10,2,10,0.00,0.00,0.00,0.00
2013-07-26 18:20:00,2,20984,4,0.00,2,2,0,2,1435,48755,17273,22912,4,4,0,4,0.00,0.00,0.00,0.00
2013-07-26 18:30:00,2,11256,4,0.00,2,2,0,2,774,28922,10786,4976,4,4,0,4,0.00,0.00,0.00,0.00
2013-07-26 18:40:00,2,35543,4,0.00,2,2,0,2,1874,50000,18085,43792,4,4,0,4,0.00,0.00,0.00,0.00
2013-07-26 18:50:00,2,49539,0,0.00,2,2,0,2,45392,50000,1382,50000,0,0,0,0,0.00,0.00,0.00,0.00
2013-07-26 19:00:00,2,50000,0,0.00,2,2,0,2,50000,50000,0,50000,0,0,0,0,0.00,0.00,0.00,0.00
2013-07-26 19:10:00,2,38860,0,0.00,2,2,0,2,17325,50000,11613,41930,0,0,0,0,0.00,0.00,0.00,0.00
2013-07-26 19:20:00,2,16197,2,0.00,2,2,0,2,1086,50000,18179,8286,0,4,2,4,0.00,0.00,0.00,0.00
2013-07-26 19:30:00,2,10859,8,0.00,2,2,0,2,1263,30301,10118,5579,4,10,3,10,0.00,0.00,0.00,0.00
2013-07-26 19:40:00,2,4505,10,0.00,2,2,0,2,1789,8247,2271,3811,10,10,0,10,0.00,0.00,0.00,0.00
2013-07-26 19:50:00,2,36005,9,0.00,2,2,0,2,6745,50000,17475,47362,0,10,3,10,0.00,0.00,0.00,0.00
2013-07-26 20:00:00,2,42824,0,0.00,2,2,0,2,18995,50000,9716,48386,0,0,0,0,0.00,0.00,0.00,0.00
2013-07-26 20:10:00,2,43552,0,0.00,2,2,0,2,16151,50000,10474,50000,0,0,0,0,0.00,0.00,0.00,0.00
2013-07-26 20:20:00,2,47349,0,0.00,2,2,0,2,28598,50000,6392,50000,0,0,0,0,0.00,0.00,0.00,0.00
2013-07-26 20:30:00,2,47991,0,0.00,2,2,0,2,31526,50000,5505,50000,0,0,0,0,0.00,0.00,0.00,0.00
2013-07-26 20:40:00,2,15087,0,0.00,2,2,0,2,5855,35384,9607,12264,0,0,0,0,0.00,0.00,0.00,0.00
2013-07-26 20:50:00,2,14319,0,0.00,2,2,0,2,8552,23105,4664,13041,0,0,0,0,0.00,0.00,0.00,0.00
2013-07-26 21:00:00,2,9422,2,0.00,2,2,0,2,4285,13247,2612,10168,0,10,4,0,0.00,0.00,0.00,0.00
2013-07-26 21:10:00,2,12069,4,0.00,2,2,0,2,5652,19030,3840,12612,0,10,5,0,0.00,0.00,0.00,0.00
2013-07-26 21:20:00,2,16448,0,0.00,2,2,0,2,9983,22197,3767,16411,0,0,0,0,0.00,0.00,0.00,0.00
2013-07-26 21:30:00,2,10171,0,0.00,2,2,0,2,7092,12747,1827,10102,0,0,0,0,0.00,0.00,0.00,0.00
2013-07-26 21:40:00,2,6604,4,0.00,2,2,0,2,3816,9894,2192,6662,0,10,5,0,0.00,0.00,0.00,0.00
2013-07-26 21:50:00,2,3753,10,0.00,2,2,0,2,1407,10462,2490,3327,10,10,0,10,0.00,0.00,0.00,0.00
2013-07-26 22:00:00,2,10112,6,0.00,2,2,0,2,3521,16236,4220,10867,0,10,5,10,0.00,0.00,0.00,0.00
2013-07-26 22:10:00,2,22349,3,0.00,2,2,0,2,9215,46471,12858,17411,0,10,5,0,0.00,0.00,0.00,0.00
2013-07-26 22:20:00,2,49233,0,0.00,2,2,0,2,42333,50000,2300,50000,0,0,0,0,0.00,0.00,0.00,0.00
2013-07-26 22:30:00,2,49362,0,0.00,2,2,0,2,46748,50000,1102,50000,0,0,0,0,0.00,0.00,0.00,0.00
2013-07-26 22:40:00,2,33905,0,0.00,2,2,0,2,3145,50000,20375,49536,0,0,0,0,0.00,0.00,0.00,0.00
2013-07-26 22:50:00,2,49876,0,0.00,2,2,0,2,48761,50000,372,50000,0,0,0,0,0.00,0.00,0.00,0.00
2013-07-26 23:00:00,2,49077,0,0.00,2,2,0,2,44005,50000,1947,50000,0,0,0,0,0.00,0.00,0.00,0.00
2013-07-26 23:10:00,2,46564,0,0.00,2,2,0,2,38364,50000,4054,48764,0,0,0,0,0.00,0.00,0.00,0.00
2013-07-26 23:20:00,2,43856,0,0.00,2,2,0,2,27100,50000,7737,48340,0,0,0,0,0.00,0.00,0.00,0.00
2013-07-26 23:30:00,2,35749,0,0.00,2,2,0,2,23964,50000,8985,38346,0,0,0,0,0.00,0.00,0.00,0.00
2013-07-26 23:40:00,2,42480,0,0.00,2,2,0,2,18189,50000,12263,50000,0,0,0,0,0.00,0.00,0.00,0.00
2013-07-26 23:50:00,2,47178,0,0.00,2,2,0,2,39955,50000,3890,50000,0,0,0,0,0.00,0.00,0.00,0.00
